Year,Month,Day,Hour,Minute,Value (Times are PST for temperature in C)
2010,06,25,00,00,13.40
2010,06,25,00,01,13.40
2010,06,25,00,02,13.30
2010,06,25,00,03,13.30
2010,06,25,00,04,13.30
2010,06,25,00,05,13.30
2010,06,25,00,06,13.20
2010,06,25,00,07,13.20
2010,06,25,00,08,13.20
2010,06,25,00,09,13.20
2010,06,25,00,10,13.20
2010,06,25,00,11,13.20
2010,06,25,00,12,13.20
2010,06,25,00,13,13.10
2010,06,25,00,14,13.10
2010,06,25,00,15,13.10
2010,06,25,00,16,13.10
2010,06,25,00,17,13.10
2010,06,25,00,18,13.10
2010,06,25,00,19,13.10
2010,06,25,00,20,13.10
2010,06,25,00,21,13.10
2010,06,25,00,22,13.10
2010,06,25,00,23,13.10
2010,06,25,00,24,13.10
2010,06,25,00,25,13.10
2010,06,25,00,26,13.10
2010,06,25,00,27,13.10
2010,06,25,00,28,13.10
2010,06,25,00,29,13.10
2010,06,25,00,30,13.10
2010,06,25,00,31,13.10
2010,06,25,00,32,13.00
2010,06,25,00,33,13.00
2010,06,25,00,34,13.00
2010,06,25,00,35,13.00
2010,06,25,00,36,12.90
2010,06,25,00,37,12.90
2010,06,25,00,38,12.90
2010,06,25,00,39,12.90
2010,06,25,00,40,12.90
2010,06,25,00,41,12.90
2010,06,25,00,42,12.90
2010,06,25,00,43,12.90
2010,06,25,00,44,12.90
2010,06,25,00,45,12.90
2010,06,25,00,46,12.90
2010,06,25,00,47,12.90
2010,06,25,00,48,12.80
2010,06,25,00,49,12.80
2010,06,25,00,50,12.80
2010,06,25,00,51,12.80
2010,06,25,00,52,12.80
2010,06,25,00,53,12.80
2010,06,25,00,54,12.80
2010,06,25,00,55,12.80
2010,06,25,00,56,12.80
2010,06,25,00,57,12.80
2010,06,25,00,58,12.80
2010,06,25,00,59,12.80
2010,06,25,01,00,12.80
2010,06,25,01,01,12.80
2010,06,25,01,02,12.80
2010,06,25,01,03,12.70
2010,06,25,01,04,12.70
2010,06,25,01,05,12.70
2010,06,25,01,06,12.70
2010,06,25,01,07,12.70
2010,06,25,01,08,12.70
2010,06,25,01,09,12.70
2010,06,25,01,10,12.70
2010,06,25,01,11,12.70
2010,06,25,01,12,12.70
2010,06,25,01,13,12.70
2010,06,25,01,14,12.70
2010,06,25,01,15,12.70
2010,06,25,01,16,12.70
2010,06,25,01,17,12.70
2010,06,25,01,18,12.70
2010,06,25,01,19,12.70
2010,06,25,01,20,12.70
2010,06,25,01,21,12.70
2010,06,25,01,22,12.70
2010,06,25,01,23,12.70
2010,06,25,01,24,12.70
2010,06,25,01,25,12.70
2010,06,25,01,26,12.80
2010,06,25,01,27,12.80
2010,06,25,01,28,12.80
2010,06,25,01,29,12.80
2010,06,25,01,30,12.80
2010,06,25,01,31,12.80
2010,06,25,01,32,12.80
2010,06,25,01,33,12.80
2010,06,25,01,34,12.80
2010,06,25,01,35,12.80
2010,06,25,01,36,12.80
2010,06,25,01,37,12.80
2010,06,25,01,38,12.80
2010,06,25,01,39,12.80
2010,06,25,01,40,12.80
2010,06,25,01,41,12.80
2010,06,25,01,42,12.80
2010,06,25,01,43,12.80
2010,06,25,01,44,12.80
2010,06,25,01,45,12.80
2010,06,25,01,46,12.80
2010,06,25,01,47,12.80
2010,06,25,01,48,12.80
2010,06,25,01,49,12.80
2010,06,25,01,50,12.80
2010,06,25,01,51,12.80
2010,06,25,01,52,12.80
2010,06,25,01,53,12.80
2010,06,25,01,54,12.80
2010,06,25,01,55,12.80
2010,06,25,01,56,12.80
2010,06,25,01,57,12.80
2010,06,25,01,58,12.80
2010,06,25,01,59,12.80
2010,06,25,02,00,12.80
2010,06,25,02,01,12.80
2010,06,25,02,02,12.80
2010,06,25,02,03,12.80
2010,06,25,02,04,12.80
2010,06,25,02,05,12.80
2010,06,25,02,06,12.80
2010,06,25,02,07,12.80
2010,06,25,02,08,12.80
2010,06,25,02,09,12.80
2010,06,25,02,10,12.80
2010,06,25,02,11,12.80
2010,06,25,02,12,12.80
2010,06,25,02,13,12.80
2010,06,25,02,14,12.80
2010,06,25,02,15,12.80
2010,06,25,02,16,12.80
2010,06,25,02,17,12.80
2010,06,25,02,18,12.90
2010,06,25,02,19,12.90
2010,06,25,02,20,12.90
2010,06,25,02,21,12.90
2010,06,25,02,22,12.90
2010,06,25,02,23,12.90
2010,06,25,02,24,12.90
2010,06,25,02,25,12.90
2010,06,25,02,26,12.90
2010,06,25,02,27,12.90
2010,06,25,02,28,12.90
2010,06,25,02,29,12.90
2010,06,25,02,30,12.90
2010,06,25,02,31,12.90
2010,06,25,02,32,12.90
2010,06,25,02,33,12.90
2010,06,25,02,34,13.00
2010,06,25,02,35,13.00
2010,06,25,02,36,13.00
2010,06,25,02,37,13.00
2010,06,25,02,38,13.00
2010,06,25,02,39,13.00
2010,06,25,02,40,13.00
2010,06,25,02,41,13.00
2010,06,25,02,42,13.00
2010,06,25,02,43,13.10
2010,06,25,02,44,13.10
2010,06,25,02,45,13.10
2010,06,25,02,46,13.10
2010,06,25,02,47,13.10
2010,06,25,02,48,13.10
2010,06,25,02,49,13.10
2010,06,25,02,50,13.10
2010,06,25,02,51,13.10
2010,06,25,02,52,13.10
2010,06,25,02,53,13.10
2010,06,25,02,54,13.10
2010,06,25,02,55,13.10
2010,06,25,02,56,13.10
2010,06,25,02,57,13.20
2010,06,25,02,58,13.20
2010,06,25,02,59,13.20
2010,06,25,03,00,13.20
2010,06,25,03,01,13.20
2010,06,25,03,02,13.20
2010,06,25,03,03,13.20
2010,06,25,03,04,13.20
2010,06,25,03,05,13.20
2010,06,25,03,06,13.20
2010,06,25,03,07,13.20
2010,06,25,03,08,13.20
2010,06,25,03,09,13.20
2010,06,25,03,10,13.20
2010,06,25,03,11,13.20
2010,06,25,03,12,13.20
2010,06,25,03,13,13.20
2010,06,25,09,09,15.50
2010,06,25,09,10,15.60
2010,06,25,09,11,15.70
2010,06,25,09,12,15.70
2010,06,25,09,13,15.80
2010,06,25,09,14,15.80
2010,06,25,09,15,15.80
2010,06,25,09,16,15.80
2010,06,25,09,17,15.90
2010,06,25,09,18,15.90
2010,06,25,09,19,15.90
2010,06,25,09,20,15.90
2010,06,25,09,21,16.00
2010,06,25,09,22,16.00
2010,06,25,09,23,16.00
2010,06,25,09,24,16.00
2010,06,25,09,25,16.00
2010,06,25,09,26,16.00
2010,06,25,09,27,16.00
2010,06,25,09,28,16.00
2010,06,25,09,29,16.00
2010,06,25,09,30,16.00
2010,06,25,09,31,16.00
2010,06,25,09,32,16.00
2010,06,25,09,33,16.00
2010,06,25,09,34,16.10
2010,06,25,09,35,16.10
2010,06,25,09,36,16.10
2010,06,25,09,37,16.10
2010,06,25,09,38,16.10
2010,06,25,09,39,16.10
2010,06,25,09,40,16.10
2010,06,25,09,41,16.10
2010,06,25,09,42,16.10
2010,06,25,09,43,16.20
2010,06,25,09,44,16.20
2010,06,25,09,45,16.20
2010,06,25,09,46,16.20
2010,06,25,09,47,16.20
2010,06,25,09,48,16.30
2010,06,25,09,49,16.30
2010,06,25,09,50,16.30
2010,06,25,09,51,16.30
2010,06,25,09,52,16.30
2010,06,25,09,53,16.40
2010,06,25,09,54,16.40
2010,06,25,09,55,16.40
2010,06,25,09,56,16.50
2010,06,25,09,57,16.50
2010,06,25,09,58,16.60
2010,06,25,09,59,16.60
2010,06,25,10,00,16.60
2010,06,25,10,01,16.60
2010,06,25,10,02,16.70
2010,06,25,10,03,16.70
2010,06,25,10,04,16.70
2010,06,25,10,05,16.70
2010,06,25,10,06,16.70
2010,06,25,10,07,16.70
2010,06,25,10,08,16.70
2010,06,25,10,09,16.70
2010,06,25,10,10,16.70
2010,06,25,10,11,16.70
2010,06,25,10,12,16.70
2010,06,25,10,13,16.70
2010,06,25,10,14,16.70
2010,06,25,10,15,16.80
2010,06,25,10,16,16.80
2010,06,25,10,17,16.80
2010,06,25,10,18,16.80
2010,06,25,10,19,16.70
2010,06,25,10,20,16.60
2010,06,25,10,21,16.60
2010,06,25,10,22,16.60
2010,06,25,10,23,16.60
2010,06,25,10,24,16.60
2010,06,25,10,25,16.70
2010,06,25,10,26,16.70
2010,06,25,10,27,16.80
2010,06,25,10,28,16.80
2010,06,25,10,29,16.80
2010,06,25,10,30,16.80
2010,06,25,10,31,16.80
2010,06,25,10,32,16.90
2010,06,25,10,33,16.90
2010,06,25,10,34,16.90
2010,06,25,10,35,16.90
2010,06,25,10,36,16.90
2010,06,25,10,37,16.80
2010,06,25,10,38,16.80
2010,06,25,10,39,16.80
2010,06,25,10,40,16.80
2010,06,25,10,41,16.80
2010,06,25,10,42,16.80
2010,06,25,10,43,16.80
2010,06,25,10,44,16.80
2010,06,25,10,45,16.80
2010,06,25,10,46,16.80
2010,06,25,10,47,16.80
2010,06,25,10,48,16.80
2010,06,25,10,49,16.90
2010,06,25,10,50,16.90
2010,06,25,10,51,17.00
2010,06,25,10,52,17.00
2010,06,25,10,53,17.00
2010,06,25,10,54,17.00
2010,06,25,10,55,17.00
2010,06,25,10,56,17.00
2010,06,25,10,57,16.90
2010,06,25,10,58,16.90
2010,06,25,10,59,16.80
2010,06,25,11,00,16.80
2010,06,25,11,01,16.70
2010,06,25,11,02,16.70
2010,06,25,11,03,16.70
2010,06,25,11,04,16.70
2010,06,25,11,05,16.70
2010,06,25,11,06,16.70
2010,06,25,11,07,16.70
2010,06,25,11,08,16.60
2010,06,25,11,09,16.60
2010,06,25,11,10,16.60
2010,06,25,11,11,16.60
2010,06,25,11,12,16.60
2010,06,25,11,13,16.70
2010,06,25,11,14,16.60
2010,06,25,11,15,16.70
2010,06,25,11,16,16.70
2010,06,25,11,17,16.70
2010,06,25,11,18,16.80
2010,06,25,11,19,16.80
2010,06,25,11,20,16.90
2010,06,25,11,21,17.00
2010,06,25,11,22,17.00
2010,06,25,11,23,17.10
2010,06,25,11,24,17.10
2010,06,25,11,25,17.10
2010,06,25,11,26,17.00
2010,06,25,11,27,17.00
2010,06,25,11,28,17.10
2010,06,25,11,29,17.10
2010,06,25,11,30,17.10
2010,06,25,11,31,17.10
2010,06,25,11,32,17.10
2010,06,25,11,33,17.10
2010,06,25,11,34,17.20
2010,06,25,11,35,17.20
2010,06,25,11,36,17.20
2010,06,25,11,37,17.30
2010,06,25,11,38,17.30
2010,06,25,11,39,17.30
2010,06,25,11,40,17.30
2010,06,25,11,41,17.30
2010,06,25,11,42,17.30
2010,06,25,11,43,17.30
2010,06,25,11,44,17.20
2010,06,25,11,45,17.20
2010,06,25,11,46,17.20
2010,06,25,11,47,17.10
2010,06,25,11,48,17.10
2010,06,25,11,49,17.10
2010,06,25,11,50,17.00
2010,06,25,11,51,17.00
2010,06,25,11,52,17.00
2010,06,25,11,53,17.00
2010,06,25,11,54,17.00
2010,06,25,11,55,17.00
2010,06,25,11,56,16.90
2010,06,25,11,57,16.90
2010,06,25,11,58,17.00
2010,06,25,11,59,17.00
2010,06,25,12,00,17.10
2010,06,25,12,01,17.10
2010,06,25,12,02,17.10
2010,06,25,12,03,17.20
2010,06,25,12,04,17.20
2010,06,25,12,05,17.30
2010,06,25,12,06,17.30
2010,06,25,12,07,17.30
2010,06,25,12,08,17.20
2010,06,25,12,09,17.20
2010,06,25,12,10,17.10
2010,06,25,12,11,17.00
2010,06,25,12,12,17.00
2010,06,25,12,13,17.00
2010,06,25,12,14,17.00
2010,06,25,12,15,17.00
2010,06,25,12,16,17.00
2010,06,25,12,17,17.00
2010,06,25,12,18,17.10
2010,06,25,12,19,17.10
2010,06,25,12,20,17.10
2010,06,25,12,21,17.10
2010,06,25,12,22,17.20
2010,06,25,12,23,17.20
2010,06,25,12,24,17.20
2010,06,25,12,25,17.30
2010,06,25,12,26,17.30
2010,06,25,12,27,17.40
2010,06,25,12,28,17.40
2010,06,25,12,29,17.40
2010,06,25,12,30,17.40
2010,06,25,12,31,17.40
2010,06,25,12,32,17.50
2010,06,25,12,33,17.50
2010,06,25,12,34,17.40
2010,06,25,12,35,17.40
2010,06,25,12,36,17.40
2010,06,25,12,37,17.40
2010,06,25,12,38,17.30
2010,06,25,12,39,17.30
2010,06,25,12,40,17.30
2010,06,25,12,41,17.30
2010,06,25,12,42,17.30
2010,06,25,12,43,17.30
2010,06,25,12,44,17.40
2010,06,25,12,45,17.40
2010,06,25,12,46,17.40
2010,06,25,12,47,17.50
2010,06,25,12,48,17.60
2010,06,25,12,49,17.50
2010,06,25,12,50,17.50
2010,06,25,12,51,17.60
2010,06,25,12,52,17.60
2010,06,25,12,53,17.60
2010,06,25,12,54,17.60
2010,06,25,12,55,17.60
2010,06,25,12,56,17.60
2010,06,25,12,57,17.60
2010,06,25,12,58,17.60
2010,06,25,12,59,17.60
2010,06,25,13,00,17.60
2010,06,25,13,01,17.60
2010,06,25,13,02,17.70
2010,06,25,13,03,17.80
2010,06,25,13,04,17.80
2010,06,25,13,05,17.80
2010,06,25,13,06,17.80
2010,06,25,13,07,17.70
2010,06,25,13,08,17.60
2010,06,25,13,09,17.50
2010,06,25,13,10,17.40
2010,06,25,13,11,17.40
2010,06,25,13,12,17.30
2010,06,25,13,13,17.30
2010,06,25,13,14,17.30
2010,06,25,13,15,17.30
2010,06,25,13,16,17.30
2010,06,25,13,17,17.20
2010,06,25,13,18,17.10
2010,06,25,13,19,17.10
2010,06,25,13,20,17.10
2010,06,25,13,21,17.20
2010,06,25,13,22,17.30
2010,06,25,13,23,17.40
2010,06,25,13,24,17.50
2010,06,25,13,25,17.60
2010,06,25,13,26,17.70
2010,06,25,13,27,17.80
2010,06,25,13,28,17.80
2010,06,25,13,29,17.80
2010,06,25,13,30,17.80
2010,06,25,13,31,17.80
2010,06,25,13,32,17.80
2010,06,25,13,33,17.80
2010,06,25,13,34,17.80
2010,06,25,13,35,17.80
2010,06,25,13,36,17.80
2010,06,25,13,37,17.80
2010,06,25,13,38,17.80
2010,06,25,13,39,17.80
2010,06,25,13,40,17.80
2010,06,25,13,41,17.80
2010,06,25,13,42,17.80
2010,06,25,13,43,17.80
2010,06,25,13,44,17.90
2010,06,25,13,45,17.90
2010,06,25,13,46,17.90
2010,06,25,13,47,18.00
2010,06,25,13,48,18.00
2010,06,25,13,49,18.00
2010,06,25,13,50,18.10
2010,06,25,13,51,18.10
2010,06,25,13,52,18.10
2010,06,25,13,53,18.00
2010,06,25,13,54,17.90
2010,06,25,13,55,17.90
2010,06,25,13,56,17.90
2010,06,25,13,57,17.90
2010,06,25,13,58,17.90
2010,06,25,13,59,17.90
2010,06,25,14,00,17.80
2010,06,25,14,01,17.70
2010,06,25,14,02,17.60
2010,06,25,14,03,17.60
2010,06,25,14,04,17.60
2010,06,25,14,05,17.60
2010,06,25,14,06,17.60
2010,06,25,14,07,17.60
2010,06,25,14,08,17.60
2010,06,25,14,09,17.60
2010,06,25,14,10,17.60
2010,06,25,14,11,17.70
2010,06,25,14,12,17.70
2010,06,25,14,13,17.70
2010,06,25,14,14,17.70
2010,06,25,14,15,17.70
2010,06,25,14,16,17.70
2010,06,25,14,17,17.60
2010,06,25,14,18,17.50
2010,06,25,14,19,17.40
2010,06,25,14,20,17.30
2010,06,25,14,21,17.30
2010,06,25,14,22,17.30
2010,06,25,14,23,17.20
2010,06,25,14,24,17.20
2010,06,25,14,25,17.20
2010,06,25,14,26,17.10
2010,06,25,14,27,17.10
2010,06,25,14,28,17.10
2010,06,25,14,29,17.00
2010,06,25,14,30,17.10
2010,06,25,14,31,17.10
2010,06,25,14,32,17.10
2010,06,25,14,33,17.10
2010,06,25,14,34,17.00
2010,06,25,14,35,17.00
2010,06,25,14,36,16.90
2010,06,25,14,37,16.90
2010,06,25,14,38,16.80
2010,06,25,14,39,16.80
2010,06,25,14,40,16.80
2010,06,25,14,41,16.80
2010,06,25,14,42,16.70
2010,06,25,14,43,16.60
2010,06,25,14,44,16.60
2010,06,25,14,45,16.60
2010,06,25,14,46,16.70
2010,06,25,14,47,16.70
2010,06,25,14,48,16.70
2010,06,25,14,49,16.70
2010,06,25,14,50,16.70
2010,06,25,14,51,16.70
2010,06,25,14,52,16.70
2010,06,25,14,53,16.60
2010,06,25,14,54,16.60
2010,06,25,14,55,16.70
2010,06,25,14,56,16.60
2010,06,25,14,57,16.50
2010,06,25,14,58,16.50
2010,06,25,14,59,16.50
2010,06,25,15,00,16.60
2010,06,25,15,01,16.60
2010,06,25,15,02,16.60
2010,06,25,15,03,16.70
2010,06,25,15,04,16.90
2010,06,25,15,05,17.10
2010,06,25,15,06,17.20
2010,06,25,15,07,17.40
2010,06,25,15,08,17.60
2010,06,25,15,09,17.70
2010,06,25,15,10,17.70
2010,06,25,15,11,17.60
2010,06,25,15,12,17.50
2010,06,25,15,13,17.40
2010,06,25,15,14,17.30
2010,06,25,15,15,17.20
2010,06,25,15,16,17.10
2010,06,25,15,17,17.00
2010,06,25,15,18,16.90
2010,06,25,15,19,16.90
2010,06,25,15,20,16.90
2010,06,25,15,21,16.80
2010,06,25,15,22,16.70
2010,06,25,15,23,16.70
2010,06,25,15,24,16.60
2010,06,25,15,25,16.50
2010,06,25,15,26,16.50
2010,06,25,15,27,16.40
2010,06,25,15,28,16.50
2010,06,25,15,29,16.60
2010,06,25,15,30,16.70
2010,06,25,15,31,16.70
2010,06,25,15,32,16.80
2010,06,25,15,33,16.90
2010,06,25,15,34,17.00
2010,06,25,15,35,17.00
2010,06,25,15,36,17.10
2010,06,25,15,37,17.10
2010,06,25,15,38,17.20
2010,06,25,15,39,17.20
2010,06,25,15,40,17.20
2010,06,25,15,41,17.30
2010,06,25,15,42,17.30
2010,06,25,15,43,17.40
2010,06,25,15,44,17.40
2010,06,25,15,45,17.40
2010,06,25,15,46,17.40
2010,06,25,15,47,17.30
2010,06,25,15,48,17.30
2010,06,25,15,49,17.20
2010,06,25,15,50,17.10
2010,06,25,15,51,17.10
2010,06,25,15,52,17.00
2010,06,25,15,53,17.00
2010,06,25,15,54,17.00
2010,06,25,15,55,17.00
2010,06,25,15,56,17.00
2010,06,25,15,57,17.00
2010,06,25,15,58,17.10
2010,06,25,15,59,17.10
2010,06,25,16,00,17.20
2010,06,25,16,01,17.30
2010,06,25,16,02,17.30
2010,06,25,16,03,17.40
2010,06,25,16,04,17.40
2010,06,25,16,05,17.40
2010,06,25,16,06,17.50
2010,06,25,16,07,17.50
2010,06,25,16,08,17.60
2010,06,25,16,09,17.60
2010,06,25,16,10,17.60
2010,06,25,16,11,17.60
2010,06,25,16,12,17.70
2010,06,25,16,13,17.70
2010,06,25,16,14,17.70
2010,06,25,16,15,17.70
2010,06,25,16,16,17.80
2010,06,25,16,17,17.80
2010,06,25,16,18,17.80
2010,06,25,16,19,17.80
2010,06,25,16,20,17.80
2010,06,25,16,21,17.80
2010,06,25,16,22,17.80
2010,06,25,16,23,17.80
2010,06,25,16,24,17.80
2010,06,25,16,25,17.80
2010,06,25,16,26,17.80
2010,06,25,16,27,17.80
2010,06,25,16,28,17.70
2010,06,25,16,29,17.70
2010,06,25,16,30,17.70
2010,06,25,16,31,17.70
2010,06,25,16,32,17.60
2010,06,25,16,33,17.50
2010,06,25,16,34,17.40
2010,06,25,16,35,17.40
2010,06,25,16,36,17.30
2010,06,25,16,37,17.30
2010,06,25,16,38,17.20
2010,06,25,16,39,17.00
2010,06,25,16,40,17.00
2010,06,25,16,41,16.90
2010,06,25,16,42,16.90
2010,06,25,16,43,16.90
2010,06,25,16,44,16.90
2010,06,25,16,45,17.00
2010,06,25,16,46,17.10
2010,06,25,16,47,17.10
2010,06,25,16,48,17.20
2010,06,25,16,49,17.20
2010,06,25,16,50,17.20
2010,06,25,16,51,17.10
2010,06,25,16,52,17.00
2010,06,25,16,53,17.00
2010,06,25,16,54,16.90
2010,06,25,16,55,16.80
2010,06,25,16,56,16.70
2010,06,25,16,57,16.60
2010,06,25,16,58,16.40
2010,06,25,16,59,16.40
2010,06,25,17,00,16.30
2010,06,25,17,01,16.20
2010,06,25,17,02,16.20
2010,06,25,17,03,16.20
2010,06,25,17,04,16.20
2010,06,25,17,05,16.20
2010,06,25,17,06,16.20
2010,06,25,17,07,16.30
2010,06,25,17,08,16.30
2010,06,25,17,09,16.50
2010,06,25,17,10,16.60
2010,06,25,17,11,16.70
2010,06,25,17,12,16.70
2010,06,25,17,13,16.70
2010,06,25,17,14,16.70
2010,06,25,17,15,16.60
2010,06,25,17,16,16.60
2010,06,25,17,17,16.70
2010,06,25,17,18,16.60
2010,06,25,17,19,16.60
2010,06,25,17,20,16.50
2010,06,25,17,21,16.50
2010,06,25,17,22,16.60
2010,06,25,17,23,16.60
2010,06,25,17,24,16.60
2010,06,25,17,25,16.60
2010,06,25,17,26,16.70
2010,06,25,17,27,16.60
2010,06,25,17,28,16.60
2010,06,25,17,29,16.60
2010,06,25,17,30,16.70
2010,06,25,17,31,16.70
2010,06,25,17,32,16.80
2010,06,25,17,33,16.80
2010,06,25,17,34,16.80
2010,06,25,17,35,16.80
2010,06,25,17,36,16.80
2010,06,25,17,37,16.80
2010,06,25,17,38,16.80
2010,06,25,17,39,16.80
2010,06,25,17,40,16.80
2010,06,25,17,41,16.80
2010,06,25,17,42,16.80
2010,06,25,17,43,16.80
2010,06,25,17,44,16.70
2010,06,25,17,45,16.70
2010,06,25,17,46,16.70
2010,06,25,17,47,16.70
2010,06,25,17,48,16.70
2010,06,25,17,49,16.80
2010,06,25,17,50,16.80
2010,06,25,17,51,16.80
2010,06,25,17,52,16.90
2010,06,25,17,53,16.90
2010,06,25,17,54,17.00
2010,06,25,17,55,17.00
2010,06,25,17,56,17.00
2010,06,25,17,57,17.00
2010,06,25,17,58,17.00
2010,06,25,17,59,17.00
2010,06,25,18,00,17.10
2010,06,25,18,01,17.10
2010,06,25,18,02,17.10
2010,06,25,18,03,17.20
2010,06,25,18,04,17.20
2010,06,25,18,05,17.30
2010,06,25,18,06,17.30
2010,06,25,18,07,17.30
2010,06,25,18,08,17.30
2010,06,25,18,09,17.30
2010,06,25,18,10,17.30
2010,06,25,18,11,17.30
2010,06,25,18,12,17.30
2010,06,25,18,13,17.30
2010,06,25,18,14,17.20
2010,06,25,18,15,17.20
2010,06,25,18,16,17.20
2010,06,25,18,17,17.10
2010,06,25,18,18,17.10
2010,06,25,18,19,17.10
2010,06,25,18,20,17.10
2010,06,25,18,21,17.10
2010,06,25,18,22,17.10
2010,06,25,18,23,17.10
2010,06,25,18,24,17.20
2010,06,25,18,25,17.20
2010,06,25,18,26,17.20
2010,06,25,18,27,17.20
2010,06,25,18,28,17.20
2010,06,25,18,29,17.20
2010,06,25,18,30,17.20
2010,06,25,18,31,17.30
2010,06,25,18,32,17.30
2010,06,25,18,33,17.30
2010,06,25,18,34,17.30
2010,06,25,18,35,17.30
2010,06,25,18,36,17.20
2010,06,25,18,37,17.20
2010,06,25,18,38,17.20
2010,06,25,18,39,17.20
2010,06,25,18,40,17.20
2010,06,25,18,41,17.20
2010,06,25,18,42,17.20
2010,06,25,18,43,17.20
2010,06,25,18,44,17.20
2010,06,25,18,45,17.20
2010,06,25,18,46,17.20
2010,06,25,18,47,17.20
2010,06,25,18,48,17.10
2010,06,25,18,49,17.10
2010,06,25,18,50,17.10
2010,06,25,18,51,17.00
2010,06,25,18,52,17.00
2010,06,25,18,53,16.90
2010,06,25,18,54,16.90
2010,06,25,18,55,16.90
2010,06,25,18,56,16.90
2010,06,25,18,57,16.90
2010,06,25,18,58,16.80
2010,06,25,18,59,16.70
2010,06,25,19,00,16.70
2010,06,25,19,01,16.60
2010,06,25,19,02,16.60
2010,06,25,19,03,16.60
2010,06,25,19,04,16.60
2010,06,25,19,05,16.60
2010,06,25,19,06,16.60
2010,06,25,19,07,16.60
2010,06,25,19,08,16.60
2010,06,25,19,09,16.60
2010,06,25,19,10,16.60
2010,06,25,19,11,16.60
2010,06,25,19,12,16.60
2010,06,25,19,13,16.60
2010,06,25,19,14,16.60
2010,06,25,19,15,16.50
2010,06,25,19,16,16.50
2010,06,25,19,17,16.60
2010,06,25,19,18,16.60
2010,06,25,19,19,16.60
2010,06,25,19,20,16.60
2010,06,25,19,21,16.60
2010,06,25,19,22,16.60
2010,06,25,19,23,16.70
2010,06,25,19,24,16.70
2010,06,25,19,25,16.70
2010,06,25,19,26,16.60
2010,06,25,19,27,16.60
2010,06,25,19,28,16.50
2010,06,25,19,29,16.50
2010,06,25,19,30,16.50
2010,06,25,19,31,16.40
2010,06,25,19,32,16.40
2010,06,25,19,33,16.40
2010,06,25,19,34,16.40
2010,06,25,19,35,16.30
2010,06,25,19,36,16.30
2010,06,25,19,37,16.30
2010,06,25,19,38,16.20
2010,06,25,19,39,16.20
2010,06,25,19,40,16.20
2010,06,25,19,41,16.20
2010,06,25,19,42,16.20
2010,06,25,19,43,16.20
2010,06,25,19,44,16.10
2010,06,25,19,45,16.10
2010,06,25,19,46,16.10
2010,06,25,19,47,16.10
2010,06,25,19,48,16.10
2010,06,25,19,49,16.00
2010,06,25,19,50,16.00
2010,06,25,19,51,15.90
2010,06,25,19,52,15.80
2010,06,25,19,53,15.80
2010,06,25,19,54,15.80
2010,06,25,19,55,15.80
2010,06,25,19,56,15.70
2010,06,25,19,57,15.70
2010,06,25,19,58,15.60
2010,06,25,19,59,15.60
2010,06,25,20,00,15.60
2010,06,25,20,01,15.60
2010,06,25,20,02,15.50
2010,06,25,20,03,15.50
2010,06,25,20,04,15.50
2010,06,25,20,05,15.50
2010,06,25,20,06,15.50
2010,06,25,20,07,15.40
2010,06,25,20,08,15.40
2010,06,25,20,09,15.40
2010,06,25,20,10,15.40
2010,06,25,20,11,15.40
2010,06,25,20,12,15.40
2010,06,25,20,13,15.40
2010,06,25,20,14,15.30
2010,06,25,20,15,15.30
2010,06,25,20,16,15.30
2010,06,25,20,17,15.30
2010,06,25,20,18,15.30
2010,06,25,20,19,15.30
2010,06,25,20,20,15.30
2010,06,25,20,21,15.30
2010,06,25,20,22,15.30
2010,06,25,20,23,15.30
2010,06,25,20,24,15.30
2010,06,25,20,25,15.30
2010,06,25,20,26,15.30
2010,06,25,20,27,15.30
2010,06,25,20,28,15.20
2010,06,25,20,29,15.20
2010,06,25,20,30,15.20
2010,06,25,20,31,15.20
2010,06,25,20,32,15.20
2010,06,25,20,33,15.20
2010,06,25,20,34,15.20
2010,06,25,20,35,15.20
2010,06,25,20,36,15.10
2010,06,25,20,37,15.10
2010,06,25,20,38,15.00
2010,06,25,20,39,14.90
2010,06,25,20,40,14.80
2010,06,25,20,41,14.80
2010,06,25,20,42,14.70
2010,06,25,20,43,14.70
2010,06,25,20,44,14.60
2010,06,25,20,45,14.60
2010,06,25,20,46,14.50
2010,06,25,20,47,14.50
2010,06,25,20,48,14.40
2010,06,25,20,49,14.40
2010,06,25,20,50,14.40
2010,06,25,20,51,14.30
2010,06,25,20,52,14.30
2010,06,25,20,53,14.20
2010,06,25,20,54,14.20
2010,06,25,20,55,14.20
2010,06,25,20,56,14.10
2010,06,25,20,57,14.10
2010,06,25,20,58,14.10
2010,06,25,20,59,14.10
2010,06,25,21,00,14.00
2010,06,25,21,01,13.90
2010,06,25,21,02,13.90
2010,06,25,21,03,13.90
2010,06,25,21,04,13.90
2010,06,25,21,05,13.80
2010,06,25,21,06,13.80
2010,06,25,21,07,13.80
2010,06,25,21,08,13.70
2010,06,25,21,09,13.70
2010,06,25,21,10,13.70
2010,06,25,21,11,13.70
2010,06,25,21,12,13.60
2010,06,25,21,13,13.60
2010,06,25,21,14,13.60
2010,06,25,21,15,13.50
2010,06,25,21,16,13.50
2010,06,25,21,17,13.40
2010,06,25,21,18,13.40
2010,06,25,21,19,13.40
2010,06,25,21,20,13.30
2010,06,25,21,21,13.30
2010,06,25,21,22,13.30
2010,06,25,21,23,13.30
2010,06,25,21,24,13.30
2010,06,25,21,25,13.30
2010,06,25,21,26,13.20
2010,06,25,21,27,13.20
2010,06,25,21,28,13.20
2010,06,25,21,29,13.20
2010,06,25,21,30,13.20
2010,06,25,21,31,13.20
2010,06,25,21,32,13.10
2010,06,25,21,33,13.10
2010,06,25,21,34,13.10
2010,06,25,21,35,13.10
2010,06,25,21,36,13.10
2010,06,25,21,37,13.10
2010,06,25,21,38,13.10
2010,06,25,21,39,13.00
2010,06,25,21,40,13.00
2010,06,25,21,41,13.00
2010,06,25,21,42,13.00
2010,06,25,21,43,13.00
2010,06,25,21,44,13.00
2010,06,25,21,45,13.00
2010,06,25,21,46,12.90
2010,06,25,21,47,12.90
2010,06,25,21,48,12.90
2010,06,25,21,49,12.90
2010,06,25,21,50,12.90
2010,06,25,21,51,12.90
2010,06,25,21,52,12.90
2010,06,25,21,53,12.80
2010,06,25,21,54,12.80
2010,06,25,21,55,12.80
2010,06,25,21,56,12.80
2010,06,25,21,57,12.80
2010,06,25,21,58,12.80
2010,06,25,21,59,12.80
2010,06,25,22,00,12.80
2010,06,25,22,01,12.80
2010,06,25,22,02,12.70
2010,06,25,22,03,12.70
2010,06,25,22,04,12.70
2010,06,25,22,05,12.70
2010,06,25,22,06,12.70
2010,06,25,22,07,12.70
2010,06,25,22,08,12.70
2010,06,25,22,09,12.70
2010,06,25,22,10,12.70
2010,06,25,22,11,12.70
2010,06,25,22,12,12.70
2010,06,25,22,13,12.60
2010,06,25,22,14,12.60
2010,06,25,22,15,12.60
2010,06,25,22,16,12.60
2010,06,25,22,17,12.60
2010,06,25,22,18,12.60
2010,06,25,22,19,12.60
2010,06,25,22,20,12.60
2010,06,25,22,21,12.50
2010,06,25,22,22,12.50
2010,06,25,22,23,12.50
2010,06,25,22,24,12.50
2010,06,25,22,25,12.40
2010,06,25,22,26,12.40
2010,06,25,22,27,12.40
2010,06,25,22,28,12.40
2010,06,25,22,29,12.40
2010,06,25,22,30,12.40
2010,06,25,22,31,12.40
2010,06,25,22,32,12.40
2010,06,25,22,33,12.40
2010,06,25,22,34,12.40
2010,06,25,22,35,12.40
2010,06,25,22,36,12.40
2010,06,25,22,37,12.40
2010,06,25,22,38,12.40
2010,06,25,22,39,12.40
2010,06,25,22,40,12.40
2010,06,25,22,41,12.40
2010,06,25,22,42,12.40
2010,06,25,22,43,12.40
2010,06,25,22,44,12.40
2010,06,25,22,45,12.40
2010,06,25,22,46,12.40
2010,06,25,22,47,12.40
2010,06,25,22,48,12.50
2010,06,25,22,49,12.50
2010,06,25,22,50,12.50
2010,06,25,22,51,12.50
2010,06,25,22,52,12.50
2010,06,25,22,53,12.50
2010,06,25,22,54,12.50
2010,06,25,22,55,12.50
2010,06,25,22,56,12.50
2010,06,25,22,57,12.50
2010,06,25,22,58,12.50
2010,06,25,22,59,12.50
2010,06,25,23,00,12.50
2010,06,25,23,01,12.50
2010,06,25,23,02,12.50
2010,06,25,23,03,12.50
2010,06,25,23,04,12.50
2010,06,25,23,05,12.50
2010,06,25,23,06,12.50
2010,06,25,23,07,12.50
2010,06,25,23,08,12.40
2010,06,25,23,09,12.40
2010,06,25,23,10,12.40
2010,06,25,23,11,12.40
2010,06,25,23,12,12.40
2010,06,25,23,13,12.40
2010,06,25,23,14,12.40